Search for airport 
image banner adimage banner adimage banner ad
image banner ad

CA320 - Pointed Mountain (Cbj6)

Located in , Canada

ICAO - , IATA -

Data provided by Airmate  

General information

Coordinates: N60°20'0" W123°49'60"
Elevation is feet MSL.
 
View others Airports in Northwest Territories

Operational data

Special qualification required
Current time UTC:
Current local time:
Weather at : CYJF - Fort Liard ( 23 km )
METAR: CYJF 062300Z 00000KT 15SM FEW140 FEW160 SCT210 M27/M30 A2977 RMK AC1AC1CI2 LAST STFD OBS/NXT 071500Z SLP114
View NOTAMs / SUP AIP / TFR affecting this airport [VIEW]
Communications frequencies: [VIEW]

Runways:

Airport contact information

Address: Canada

Satellite view of CA320